Probability
0 0 0 0 0 0 0 0 0 0 0 0 0 0 0 0 0 0 0 0 0 0 0 0 0 0 0 0 0 0 0 0 0 0 0 0 0 0 0 0 0 0 0
0 0 0 0 0 0 0 0 0 0 0 0 0 0 0 0 0 0 0 0 0 0 0 0 0 0 0 0 0 0 0 0 0 0 0 0 0 0 0 0 0 0 0
0 0 0 0 0 0 0 0 0 0 0 0 0 0 0 0 0 0 0 0 0 0 0 0 0 0 0 0 0 0 0 0 0 0 0 0 0 0 0 0 0 0 0
0 0 0 0 0 0 0 0 0 0 0 0 0 0 0 0 0 0 0 0 0 0 0 0 0 0 0 0 0 0 0 0 0 0 0 0 0 0 0 0 0 0 0
0 0 0 0 0 0 0 0 0 0 0 0 0 0 0 0 0 0 0 0 0 0 0 0 0 0 0 0 0 0 0 0 0 0 0 0 0 0 0 0 0 0 0
0 0 0 0 0 0 0 0 0 0 0 0 0 0 0 0 0 0 0 0 0 0 0 0 0 0 0 0 0 0 0 0 0 0 0 0 0 0 0 0 0 0 0
0 0 0 0 0 0 0 0 0 0 0 0 0 0 0 0 0 0 0 0 0 0 0 0 0 0 0 0 0 0 0 0 0 0 0 0 0 0 0 0 0 0 0
0 0 0 0 0 0 0 0 0 0 0 0 0 0 0 0 0 0 0 0 0 0 0 0 0 0 0 0 0 0 0 0 0 0 0 0 0 0 0 0 0 0 0
0 0 0 0 0 0 0 0 0 0 0 0 0 0 0 0 0 0 0 0 0 0 0 0 0 0 0 0 0 0 0 0 0 0 0 0 0 0 0 0 0 0 0
0 0 0 0 0 0 0 0 0 0 0 0 0 0 0 0 0 0 0 0 0 0 0 0 0 0 0 0 0 0 0 0 0 0 0 0 0 0 0 0 0 0 0
0 0 0 0 0 0 0 0 0 0 0 0 0 0 0 0 0 0 0 0 0 0 0 0 0 0 0 0 0 0 0 0 0 0 0 0 0 0 0 0 0 0 0
0 0 0 0 0 0 0 0 0 0 0 0 0 0 0 0 0 0 0 0 0 0 0 0 0 0 0 0 0 0 0 0 0 0 0 0 0 0 0 0 0 0 0
0 0 0 0 0 0 0 0 0 0 0 0 0 0 0 0 0 0 0 0 0 0 0 0 0 0 0 0 0 0 0 0 0 0 0 0 0 0 0 0 0 0 0
0 0 0 0 0 0 0 0 0 0 0 0 0 0 0 0 0 0 0 0 0 0 0 0 0 0 0 0 0 0 0 0 0 0 0 0 0 0 0 0 0 0 0
0 0 0 0 0 0 0 0 0 0 0 0 0 0 0 0 0 0 0 0 0 0 0 0 0 0 0 0 0 0 0 0 0 0 0 0 0 0 0 0 0 0 0
0 0 0 0 0 0 0 0 0 0 0 0 0 0 0 0 0 0 0 0 0 0 0 0 0 0 0 0 0 0 0 0 0 0 0 0 0 0 0 0 0 0 0
0 0 0 0 0 0 0 0 0 0 0 0 0 0 0 0 0 0 0 0 0 0 0 0 0 0 0 0 0 0 0 0 0 0 0 0 0 0 0 0 0 0 0
0 0 0 0 0 0 0 0 0 0 0 0 0 0 0 0 0 0 0 0 0 0 0 0 0 0 0 0 0 0 0 0 0 0 0 0 0 0 0 0 0 0 0
0 0 0 0 0 0 0 0 0 0 0 0 0 0 0 0 0 0 0 0 0 0 0 0 0 0 0 0 0 0 0 0 0 0 0 0 0 0 0 0 0 0 0
0 0 0 0 0 0 0 0 0 0 0 0 0 0 0 0 0 0 0 0 0 0 0 0 0 0 0 0 0 0 0 0 0 0 0 0 0 0 0 0 0 0 0
0 0 0 0 0 0 0 0 0 0 0 0 0 0 0 0 0 0 0 0 0 0 0 0 0 0 0 0 0 0 0 0 0 0 0 0 0 0 0 0 0 0 0
0 0 0 0 0 0 0 0 0 0 0 0 0 0 0 0 0 0 0 0 0 0 0 0 0 0 0 0 0 0 0 0 0 0 0 0 0 0 0 0 0 0 0
0 0 0 0 0 0 0 0 0 0 0 0 0 0 0 0 0 0 0 0 0 0 0 0 0 0 0 0 0 0 0 0 0 0 0 0 0 0 0 0 0 0 0
0 0 0 0 0 0 0 0 0 0 0 0 0 0 0 0 0 0 0 0 0 0 0 0 0 0 0 0 0 0 0 0 0 0 0 0 0 0 0 0 0 0 0
0 0 0 0 0 0 0 0 0 0 0 0 0 0 0 0 0 0 0 0 0 0 0 0 0 0 0 0 0 0 0 0 0 0 0 0 0 0 0 0 0 0 0
0 0 0 0 0 0 0 0 0 0 0 0 0 0 0 0 0 0 0 0 0 0 0 0 0 0 0 0 0 0 0 0 0 0 0 0 0 0 0 0 0 0 0
Wind_Speed
6 5 6 5 5 5 4 4 3 3 2 2 2 2 1 1 1 1 0 1 2 2 2 4 4 4 3 3 2 3 3 3 4 3 2 2 2 2 2 3 4 4 5
5 5 5 5 5 5 4 4 3 2 2 1 1 1 1 1 1 2 2 3 3 4 3 3 4 4 4 3 2 3 2 3 3 3 2 2 2 2 2 3 3 5 4
6 6 7 6 6 6 5 5 4 4 4 4 3 2 2 2 1 0 2 3 4 4 3 3 3 4 3 2 3 2 1 1 2 2 2 2 1 1 1 1 2 2 3
7 7 7 7 7 7 7 7 7 7 7 8 7 6 5 5 4 2 1 2 3 3 3 3 3 4 5 4 3 3 2 1 1 1 1 1 1 1 1 1 1 1 2
8 8 8 8 7 7 7 8 8 9 9 7 7 7 6 5 6 5 2 2 2 2 2 2 2 4 6 5 3 3 3 2 1 1 0 1 1 1 1 1 2 1 0
7 7 7 7 8 8 7 7 7 7 6 7 7 7 7 7 10 9 5 3 2 2 2 1 1 2 4 4 5 5 4 3 2 1 1 1 1 1 1 0 0 1 0
6 6 6 7 7 7 7 7 6 6 6 7 7 7 7 10 16 16 14 6 5 3 2 1 2 2 2 2 2 2 2 2 3 3 1 1 0 1 1 1 1 1 1
5 5 5 6 6 6 6 6 5 4 5 5 6 6 7 11 18 17 15 8 6 6 4 3 2 2 1 2 2 2 0 1 1 2 1 1 1 1 1 1 1 2 3
4 4 4 4 5 6 6 5 4 4 4 4 4 6 7 9 16 16 13 5 5 6 5 5 3 3 2 3 3 3 2 2 1 2 2 1 1 2 2 2 2 3 2
1 2 3 3 4 5 5 4 4 3 4 4 6 6 7 7 14 16 12 4 4 4 4 4 5 4 5 4 3 3 4 1 2 2 2 3 3 3 4 3 2 2 2
1 2 3 3 4 4 5 5 5 5 6 6 6 5 6 8 11 15 14 4 3 3 2 2 2 3 4 4 3 2 2 2 2 3 2 2 3 3 3 3 2 2 2
1 2 3 3 4 5 5 6 6 6 6 5 5 5 4 6 8 11 14 11 7 2 2 2 2 1 1 2 1 1 3 4 3 3 3 2 2 2 2 3 4 4 4
2 3 3 4 4 4 5 5 5 5 4 4 4 4 4 5 7 14 14 13 11 4 2 3 1 1 2 2 1 1 3 3 3 3 3 2 1 2 2 3 4 5 6
4 4 4 4 4 4 4 3 4 4 4 4 4 4 4 5 6 7 7 7 8 6 4 4 5 5 3 2 3 3 2 2 3 3 3 2 3 4 4 3 3 3 4
4 4 4 3 4 4 3 3 3 2 2 2 2 3 4 5 7 11 8 6 5 5 3 4 4 4 4 4 3 3 3 3 4 3 4 4 5 5 4 4 4 4 4
4 3 3 3 2 2 2 2 3 2 4 4 3 3 3 5 9 11 13 14 14 11 7 6 6 6 5 5 5 5 5 5 4 5 5 5 5 5 5 5 4 5 5
4 4 3 3 3 3 2 1 0 2 4 4 5 5 6 8 10 11 11 11 14 12 8 7 6 6 6 6 5 6 5 5 5 6 6 5 5 5 5 4 4 4 4
4 4 4 3 3 3 2 2 1 0 1 2 4 5 5 8 10 10 10 8 8 8 6 6 6 6 6 6 6 6 6 6 6 6 6 5 4 4 4 4 4 3 3
3 3 3 2 2 3 2 2 2 2 1 1 2 3 4 5 8 10 8 5 4 5 5 5 5 5 5 5 5 5 6 5 5 5 4 4 4 4 4 4 3 4 3
2 4 4 3 3 3 3 3 2 2 1 1 1 1 2 3 3 4 4 3 3 3 3 4 4 5 4 4 4 4 5 5 5 4 4 4 3 4 4 4 3 3 2
2 2 3 3 3 3 3 3 3 3 2 2 1 2 1 2 1 1 2 2 2 2 2 3 3 4 4 3 3 4 5 4 3 3 3 3 3 3 3 3 3 3 2
1 2 2 2 3 3 4 4 3 3 4 3 2 1 2 2 1 1 1 1 1 1 1 2 2 2 2 3 3 3 3 3 3 2 2 3 3 3 3 3 3 2 2
2 2 2 3 3 4 4 3 3 4 4 4 3 2 2 2 2 2 2 2 1 1 1 2 3 2 2 2 2 2 3 2 1 1 2 3 3 3 3 3 3 3 3
2 2 2 3 3 4 4 4 4 4 4 4 4 3 3 3 3 3 3 3 2 2 2 2 3 4 4 3 2 2 1 0 0 1 3 4 4 3 3 3 3 3 4
2 2 2 4 4 5 4 4 4 5 5 4 4 4 4 4 4 4 4 3 3 3 3 3 3 3 4 4 2 1 1 1 1 2 3 4 4 4 3 3 3 3 3
3 3 3 3 4 5 5 5 5 5 5 5 5 5 5 5 5 5 4 4 4 3 3 3 5 5 5 3 3 3 2 2 3 5 4 4 4 4 4 3 4 4 4
Wind_Direction
22 26 28 27 28 33 35 32 32 31 30 35 40 44 44 45 70 137 148 163 202 221 219 213 213 192 181 181 172 170 178 173 211 258 258 262 245 234 192 197 208 213 221
14 18 20 19 21 23 20 14 11 5 347 321 304 292 292 303 254 206 203 202 212 226 228 221 211 183 173 171 164 174 186 193 198 241 275 271 249 229 207 205 210 214 216
16 18 16 16 21 23 19 17 20 26 28 26 38 46 31 18 12 266 201 202 207 208 198 187 173 149 152 157 157 161 177 187 191 210 258 274 276 248 202 234 225 227 222
24 27 25 21 23 26 28 28 31 41 51 50 52 52 49 42 33 27 125 176 183 192 179 163 165 167 166 159 152 151 141 123 141 190 250 284 284 277 171 219 249 229 235
29 30 25 23 28 33 35 38 42 50 55 51 52 43 32 34 28 27 44 102 140 126 107 131 156 172 171 163 153 151 135 119 108 100 23 352 343 358 275 227 221 223 268
31 27 24 27 31 32 35 40 47 49 50 54 51 46 40 31 26 37 53 63 74 91 98 91 111 131 163 156 152 158 156 142 139 118 82 26 332 316 324 7 143 109 24
30 25 25 30 32 27 33 37 38 39 43 45 41 39 35 30 39 45 52 55 49 50 71 103 129 122 136 131 135 154 178 177 156 147 144 197 243 319 49 47 54 77 85
29 25 24 31 31 26 30 31 29 32 41 43 40 34 32 31 37 41 44 44 44 38 35 44 89 96 132 147 128 111 18 304 210 154 169 196 169 125 103 111 104 78 59
21 19 24 38 39 30 26 20 17 31 36 37 35 32 32 21 29 34 38 29 35 30 29 36 64 73 61 124 123 118 84 25 70 133 147 131 98 90 97 79 63 70 58
357 26 43 56 53 38 23 18 19 36 40 42 40 32 30 19 21 26 30 26 25 16 16 22 42 60 62 82 119 136 131 111 90 94 69 50 46 48 65 82 105 98 91
213 73 59 61 61 47 36 33 42 53 52 49 47 34 25 15 11 16 19 19 6 359 3 355 347 32 60 63 92 128 143 133 111 112 94 70 53 48 46 49 66 100 108
156 92 64 51 55 60 53 44 43 52 54 42 35 23 10 2 1 3 9 12 10 357 335 311 285 318 38 59 93 117 98 97 102 102 95 82 71 57 52 56 57 60 68
127 108 88 70 58 59 62 57 47 43 48 36 29 18 357 352 353 2 4 6 7 10 330 331 330 28 44 36 45 118 88 96 106 109 112 100 79 71 65 63 54 59 54
121 120 111 97 77 60 53 52 57 45 42 37 27 14 355 350 355 356 354 356 0 13 14 16 45 66 67 47 49 76 88 107 117 121 114 87 64 58 49 54 69 68 60
110 124 125 116 108 85 62 43 51 39 51 59 22 0 2 357 349 0 13 10 7 14 25 39 46 48 54 55 58 65 70 81 88 90 93 85 73 65 52 47 62 65 68
112 125 134 136 130 124 113 61 23 24 32 43 32 16 345 358 7 19 21 25 27 33 49 51 51 51 55 56 63 63 61 67 74 84 85 85 83 79 71 57 62 72 73
133 140 145 151 158 162 164 150 51 345 354 4 5 8 19 21 27 26 24 30 33 38 52 49 49 49 52 55 59 66 63 58 69 79 84 84 84 79 76 69 67 70 66
136 147 148 157 163 165 171 176 170 136 360 341 341 351 15 34 36 34 31 38 36 35 40 42 41 42 48 55 59 64 66 64 68 74 77 76 79 83 80 74 71 79 75
145 151 153 155 150 143 140 133 123 106 73 14 354 356 16 36 39 37 40 49 49 39 35 36 34 36 41 49 55 60 65 67 68 72 73 77 80 85 84 80 77 73 74
177 173 157 159 156 148 146 141 141 139 128 86 14 348 8 40 33 20 30 46 60 53 43 40 34 36 41 47 55 63 66 65 65 69 72 76 79 87 96 94 89 83 71
207 195 161 140 158 163 164 169 173 175 184 203 247 275 167 108 93 59 51 57 76 79 65 54 44 40 42 48 58 65 68 63 61 67 72 79 88 92 95 95 92 89 91
261 221 195 177 173 175 177 179 180 188 200 206 228 264 147 129 146 138 115 105 104 98 91 84 71 58 57 61 70 77 72 62 52 60 77 88 95 102 105 100 94 91 93
322 246 217 208 194 188 179 183 190 197 206 209 207 201 188 184 188 181 173 168 150 120 91 96 102 89 71 62 62 81 91 71 25 48 101 104 106 110 114 118 119 108 98
325 296 239 215 208 202 199 202 203 204 204 204 201 197 195 194 193 189 181 177 169 154 125 119 132 137 124 99 78 67 56 353 332 84 114 123 122 122 120 114 111 110 105
297 281 257 222 215 215 214 213 210 206 203 201 198 195 193 188 188 187 184 183 181 180 169 153 148 145 142 135 124 95 46 39 122 143 124 122 126 127 122 116 110 103 107
286 274 262 235 221 218 215 214 212 206 204 204 198 192 189 187 188 187 183 183 185 188 179 170 174 172 165 156 142 115 70 69 127 134 127 121 124 125 122 113 111 104 108